COSMOS 1275 DEB, 42154

Orbit data source: Space-Track

COSMOS 1275 DEB, 42154 is space debris in LEO originally from a launch on Thu, 04 Jun 1981 UTC launched from the Plesetsk Missile And Space Complex (PKMTR). Debris objects in space refer to the collection of defunct objects orbiting the Earth. Examples of debris include non-operational satellites, rocket bodies, and fragments generated from explosions, collisions, or faulty payload assembly.

Loading next visibility...
Identifier
42154, 1981-053RS
Orbit
LEO
Country
Flag of CISCIS
Related business
Manufacturer
Unknown
Mission
Spacecraft
Bus & Motor
Unknown
Mass
Unknown
Launch date (UTC)
1981-06-04 (44 years ago)
Launch vehicle
Unknown
Launch site
Plesetsk Missile And Space Complex (PKMTR)
Object type
Payload
Rocket body
Debris
Shape & HBR
Unknown shape, 0.1 m
Radar Cross Section
Small (<0.1 m²)

Expand to show TLE details & history
Last TLE update: 5 days ago

TLE from 5 days ago
0 COSMOS 1275 DEB
1 42154U 81053RS  25300.27983992  .00001374  00000-0  15079-2 0  9991
2 42154  82.8046 127.6099 0126942 236.0191 303.5275 13.68269893539722
Epoch: 2025-10-27T06:42Z
TLE epoch observation values (Epoch: 2025-10-27T06:42:58.169Z)
Latitude
1.55819°
Longitude
170.78783°
Altitude
957.541 km
Speed
7.398 km/s
True Right ascension
20h 29m 39s
True Declination
1° 32' 57"
Sunlit
Object was in daylight at epoch
Visualization orbit readout
Latitude
Unknown
Longitude
Unknown
Altitude
Unknown
Speed
Unknown
Apparent Right ascension
Unknown
Apparent Declination
Unknown
Sunlit
N/A
Visualization observer readout
Local Sidereal Time
01:32:54
Azimuth
Unknown
Elevation
Unknown
Doppler factor
Unknown
Orbital elements
Apogee altitude
1,096.649 km
Perigee altitude
909.255 km
Semi-major axis
7,381.089 km
Eccentricity
0.01269
Inclination
82.8046°
RAAN
127.6099°
Arg. of periapsis
236.0191°
True anomaly
302.30425°
Mean anomaly
303.5275°
Eccentric anomaly
302.91694°
Mean motion
3.42265 °/min
Orbital period
105.18 mins
BSTAR
0.0015079
Loading maneuver chart data...
Computing Atmospheric mass density...
Loading historical data...
Loading historical data...
Loading historical data...
Loading historical data...
Loading historical data...
Loading historical data...
Loading historical data...

Documentation

Showing up to 5 results
|